Date,TemperatureHighF,TemperatureAvgF,TemperatureLowF,DewpointHighF,DewpointAvgF,DewpointLowF,HumidityHigh,HumidityAvg,HumidityLow,PressureMaxIn,PressureMinIn,WindSpeedMaxMPH,WindSpeedAvgMPH,GustSpeedMaxMPH,PrecipitationSumIn
2014-1-1,43,42,40,42,41,38,97,96,92,29.17,28.72,12,6,21,0.13
2014-1-2,48,46,40,46,43,39,96,90,78,29.12,28.65,19,9,40,0.10
2014-1-3,48,46,42,44,42,38,94,86,78,29.13,28.55,33,17,55,0.56
2014-1-4,45,40,37,40,38,35,95,92,81,29.32,29.05,11,6,25,0.09
2014-1-5,52,45,40,51,43,38,97,93,81,29.32,28.79,18,10,34,0.37
2014-1-6,51,48,44,47,44,42,93,88,81,28.98,28.58,21,14,43,0.30
2014-1-7,50,48,45,47,45,42,96,91,85,29.51,28.97,20,11,39,0.39
2014-1-8,47,43,38,46,42,37,98,97,96,29.81,29.52,9,3,16,0.02
2014-1-9,48,41,35,44,40,34,99,95,85,29.78,29.68,10,5,16,0.02
2014-1-10,46,43,36,46,41,34,98,95,91,29.89,29.64,10,4,20,0.28
2014-1-11,43,38,33,41,37,32,97,93,85,30.10,29.88,10,4,20,0.03
2014-1-12,50,46,42,47,44,40,97,94,88,29.90,29.42,15,9,31,0.32
2014-1-13,43,40,33,42,38,32,96,93,87,29.56,29.39,14,5,29,0.20
2014-1-14,51,43,35,50,42,33,99,98,95,29.57,29.28,14,7,25,0.51
2014-1-15,51,47,42,51,46,40,99,95,86,29.28,28.98,15,8,28,0.28
2014-1-16,46,43,41,44,42,40,97,96,92,28.98,28.84,9,4,18,0.00
2014-1-17,49,44,41,46,42,39,96,93,85,29.16,28.97,8,4,14,0.02
2014-1-18,43,40,36,42,38,35,98,96,90,29.17,29.07,6,1,10,0.00
2014-1-19,44,42,40,43,40,38,97,95,91,29.53,29.17,9,4,15,0.23
2014-1-20,47,42,38,43,40,36,97,92,79,29.78,29.53,13,6,26,0.02
2014-1-21,49,46,44,46,44,42,97,94,89,29.60,29.34,15,8,27,0.20
2014-1-22,49,45,42,47,43,39,96,93,86,29.85,29.37,12,7,25,0.09
2014-1-23,48,43,41,47,42,38,98,94,90,29.99,29.76,16,7,31,0.46
2014-1-24,52,50,45,52,50,44,99,98,96,29.81,29.62,16,10,28,0.65
2014-1-25,50,46,41,48,43,37,96,89,79,29.97,29.67,24,12,44,0.17
2014-1-26,51,43,37,50,40,33,98,88,65,29.80,29.09,25,15,48,0.75
2014-1-27,48,44,40,45,42,38,95,92,87,29.09,28.88,23,14,38,0.46
2014-1-28,48,44,40,44,41,37,94,89,75,29.31,28.89,13,7,24,0.02
2014-1-29,48,42,39,42,39,36,96,88,79,29.64,29.31,7,4,18,0.00
2014-1-30,44,41,37,43,40,36,98,96,94,29.65,29.50,9,4,17,0.03
2014-1-31,48,42,35,47,40,32,97,92,70,29.49,28.78,19,10,41,0.55
2014-2-1,49,44,37,45,41,32,97,89,72,29.19,28.50,28,17,48,0.60
2014-2-2,49,45,40,45,42,36,94,88,81,29.43,29.15,20,11,36,0.09
2014-2-3,49,44,40,46,41,37,97,91,84,29.20,29.01,20,9,39,0.54
2014-2-4,45,41,36,43,39,35,95,91,81,29.20,28.32,15,8,36,0.13
2014-2-5,47,46,44,46,44,42,97,94,92,29.00,28.24,13,8,24,0.24
2014-2-6,47,43,40,42,40,37,95,89,78,29.17,29.00,11,6,22,0.01
2014-2-7,45,41,36,44,38,34,96,91,86,29.25,28.41,16,7,32,0.24
2014-2-8,48,44,41,46,42,39,96,93,88,28.54,28.02,19,12,36,0.36
2014-2-9,47,42,32,43,38,30,95,86,61,29.04,28.54,18,9,32,0.13
2014-2-10,48,40,31,40,36,29,97,86,60,29.42,29.05,19,6,37,0.10
2014-2-11,42,38,35,40,34,32,94,88,77,29.29,29.09,21,10,38,0.24
2014-2-12,46,40,37,44,38,33,97,90,75,29.29,28.23,30,13,56,0.69
2014-2-13,47,41,36,40,37,34,95,88,70,29.30,28.95,19,11,39,0.20
2014-2-14,46,39,37,45,38,36,98,95,91,29.28,28.31,15,6,30,0.28
2014-2-15,50,44,39,43,39,35,96,83,62,29.65,28.59,12,7,25,0.06
2014-2-16,48,42,36,44,39,34,95,90,82,29.67,29.27,12,6,24,0.06
2014-2-17,52,46,41,49,45,40,98,96,84,29.61,29.26,8,3,18,0.05
2014-2-18,51,45,39,50,44,38,99,97,92,29.75,29.61,10,5,16,0.03
2014-2-19,51,49,46,51,48,45,99,98,95,29.75,29.21,12,6,20,0.23
2014-2-20,51,44,39,50,41,36,99,92,77,29.41,29.08,18,10,43,0.35
2014-2-21,49,44,41,43,41,38,94,89,76,29.52,29.29,23,13,41,0.33
2014-2-22,51,46,43,50,44,40,97,93,86,29.56,29.24,13,9,30,0.13
2014-2-23,51,48,44,50,46,41,98,91,80,29.40,29.09,17,10,32,0.49
2014-2-24,46,43,41,43,41,39,96,93,88,29.39,28.95,16,8,30,0.17
2014-2-25,50,44,41,44,41,38,95,88,74,29.50,28.84,21,13,38,0.44
2014-2-26,49,45,41,45,42,39,95,87,71,29.78,29.41,20,11,36,0.20
2014-2-27,48,43,39,43,39,37,96,87,74,29.67,29.42,15,8,29,0.36
2014-2-28,50,42,37,44,39,34,96,90,73,29.75,29.46,14,5,30,0.16
2014-3-1,50,44,40,47,42,38,97,94,87,29.64,29.38,13,5,24,0.08
2014-3-2,49,42,38,46,40,36,97,91,81,29.41,28.78,16,7,29,0.22
2014-3-3,50,42,35,43,39,33,96,90,68,29.51,28.77,12,5,27,0.09
2014-3-4,50,43,40,45,41,38,96,91,82,29.87,29.50,10,4,15,0.01
2014-3-5,52,48,41,50,46,40,98,93,82,29.96,29.87,12,7,21,0.29
2014-3-6,52,50,48,52,50,48,100,99,98,29.99,29.80,15,7,26,0.54
2014-3-7,50,46,42,48,39,32,99,80,55,30.24,29.80,14,7,24,0.03
2014-3-8,56,51,45,50,47,39,97,87,76,30.00,29.76,17,11,33,0.04
2014-3-9,46,44,41,44,42,38,97,94,86,30.29,29.88,7,2,13,0.06
2014-3-10,53,44,38,47,40,35,98,87,67,30.54,30.29,4,1,7,0.01
2014-3-11,56,44,34,46,38,32,97,83,57,30.57,30.49,4,1,7,0.00
2014-3-12,52,44,39,46,42,37,97,90,76,30.53,30.45,6,2,10,0.00
2014-3-13,51,46,41,48,45,39,98,95,88,30.50,30.43,3,1,8,0.01
2014-3-14,52,48,44,50,46,44,97,94,91,30.47,30.38,12,6,20,0.00
2014-3-15,55,49,46,51,47,44,97,91,84,30.50,30.44,17,10,28,0.00
2014-3-16,53,49,46,50,47,45,98,93,85,30.45,30.29,12,7,20,0.00
2014-3-17,51,48,45,49,46,43,97,92,86,30.29,29.95,12,6,19,0.01
2014-3-18,54,50,48,49,47,45,96,90,79,30.15,29.80,17,13,32,0.09
2014-3-19,53,51,49,49,48,47,97,90,84,30.12,29.58,19,15,38,0.01
2014-3-20,52,46,41,50,43,36,97,89,75,29.59,29.38,20,12,42,0.87
2014-3-21,42,39,39,39,35,34,88,85,82,29.53,29.33,14,9,22,0.39
2014-3-22,50,42,38,44,38,35,95,86,60,29.71,29.25,15,8,29,0.33
2014-3-23,51,44,38,42,38,36,93,82,59,29.96,29.71,10,5,19,0.07
2014-3-24,51,46,41,48,43,37,95,89,82,29.80,29.20,21,12,40,0.20
2014-3-25,54,46,42,44,40,38,91,81,61,30.28,29.50,11,5,27,0.00
2014-3-26,54,46,40,43,40,38,92,81,63,30.32,30.03,8,4,17,0.00
2014-3-27,48,42,38,43,39,36,96,87,70,30.04,29.90,9,3,22,0.24
2014-3-28,48,42,36,42,39,34,97,91,77,30.07,29.97,13,6,26,0.06
2014-3-29,51,45,40,47,43,38,97,91,72,29.98,29.62,9,4,20,0.33
2014-3-30,56,49,42,50,45,39,96,88,67,29.83,29.62,9,4,21,0.09
2014-3-31,62,52,48,51,48,44,97,85,66,29.79,29.72,9,4,18,0.04
2014-4-1,60,51,43,49,46,42,97,82,58,29.81,29.63,8,4,19,0.03
2014-4-2,57,51,47,54,49,45,96,93,84,29.62,29.38,9,5,20,0.16
2014-4-3,61,53,48,52,49,46,93,87,71,29.60,29.40,11,5,19,0.03
2014-4-4,61,54,50,52,49,44,95,84,56,29.66,29.59,11,5,22,0.05
2014-4-6,48,48,48,45,45,45,89,89,89,29.70,29.69,4,3,9,0.09
2014-4-7,53,48,42,48,43,38,94,85,65,29.81,29.61,16,7,26,0.06
2014-4-8,54,48,40,49,43,38,94,85,70,30.23,29.81,16,9,26,0.02
2014-4-9,57,52,50,52,49,45,95,90,77,30.24,30.19,14,10,24,0.00
2014-4-10,58,50,43,51,46,39,97,85,62,30.25,30.15,13,6,22,0.01
2014-4-11,53,48,41,46,43,39,94,83,71,30.26,30.09,15,6,24,0.00
2014-4-12,57,51,48,51,44,39,97,80,55,30.20,29.97,16,10,27,0.04
2014-4-13,55,50,46,49,44,42,92,83,71,30.29,30.20,17,7,27,0.00
2014-4-14,59,51,45,44,42,39,90,72,55,30.38,30.29,6,2,10,0.00
2014-4-15,64,52,40,48,42,37,93,70,44,30.33,30.22,14,6,31,0.00
2014-4-16,61,53,47,51,47,41,96,81,68,30.23,30.11,14,8,23,0.00
2014-4-17,54,51,47,50,47,45,95,88,76,30.23,30.13,10,6,19,0.00
2014-4-18,60,52,47,50,47,45,95,84,66,30.23,30.11,6,2,11,0.00
2014-4-19,64,55,47,52,46,40,95,75,45,30.12,29.95,8,2,16,0.00
2014-4-20,62,53,41,49,43,38,89,70,49,30.02,29.80,12,5,23,0.00
2014-4-21,64,56,50,50,46,42,91,72,46,29.80,29.67,12,7,25,0.02
2014-4-22,58,53,49,52,48,43,92,84,76,29.72,29.65,7,2,14,0.02
2014-4-23,59,52,47,51,48,45,94,88,68,29.93,29.59,12,4,20,0.51
2014-4-24,62,52,45,49,45,42,97,79,53,30.03,29.92,7,4,14,0.00
2014-4-25,60,52,45,50,46,40,90,80,65,29.97,29.37,13,6,33,0.04
2014-4-26,57,51,44,51,47,43,95,89,77,29.56,29.25,15,8,42,0.22
2014-4-27,63,54,48,52,48,45,93,81,56,29.92,29.56,7,3,17,0.09
2014-4-28,66,55,44,55,48,42,96,79,46,29.93,29.86,5,2,9,0.01
2014-4-29,67,58,52,52,51,48,91,76,54,29.88,29.81,9,3,16,0.00
2014-4-30,60,54,50,56,51,47,94,90,83,29.82,29.69,13,6,23,0.16
2014-5-1,59,54,50,55,52,49,97,92,83,30.10,29.71,11,4,18,0.08
2014-5-2,60,55,50,55,52,49,94,89,82,30.30,30.10,8,4,16,0.00
2014-5-3,62,55,52,59,54,51,97,94,88,30.30,30.16,8,5,17,0.05
2014-5-4,58,55,52,54,53,49,97,93,88,30.17,29.82,12,6,23,0.02
2014-5-5,58,53,50,53,50,48,96,90,82,29.82,29.45,17,10,36,0.35
2014-5-6,57,52,49,51,48,45,93,87,73,29.54,29.44,18,10,32,0.07
2014-5-7,56,52,48,52,49,45,94,91,83,29.76,29.52,18,12,30,0.26
2014-5-8,56,53,50,55,51,48,98,93,83,29.74,29.58,17,8,29,0.21
2014-5-9,57,52,48,50,48,45,95,86,72,29.84,29.64,17,10,31,0.03
2014-5-10,58,53,49,54,50,47,96,92,81,29.54,29.29,19,13,35,0.24
2014-5-11,53,50,46,50,47,43,96,91,78,29.79,29.54,15,10,29,0.07
2014-5-12,58,50,44,52,47,42,96,90,73,30.03,29.78,12,4,19,0.32
2014-5-13,62,55,47,52,48,45,94,78,63,30.40,30.03,11,7,22,0.00
2014-5-14,57,54,50,56,52,46,98,95,87,30.57,30.39,10,5,16,0.04
2014-5-15,64,56,52,55,52,50,97,87,73,30.60,30.56,7,3,11,0.00
2014-5-16,61,55,51,54,51,49,95,87,70,30.56,30.34,14,6,24,0.00
2014-5-17,61,55,52,54,51,49,97,87,65,30.34,29.83,18,9,28,0.23
2014-5-18,58,52,47,54,48,41,98,84,60,29.83,29.68,10,6,18,0.37
2014-5-19,60,52,46,55,50,43,97,92,77,29.69,29.56,7,3,16,0.46
2014-5-20,66,57,53,60,55,52,98,93,75,29.67,29.56,11,4,19,0.46
2014-5-21,62,54,50,52,50,46,97,85,61,29.79,29.67,8,4,16,0.01
2014-5-22,58,52,47,52,48,45,95,87,77,29.77,29.67,12,8,24,0.12
2014-5-23,56,51,47,48,46,43,97,84,69,29.91,29.77,13,9,27,0.27
2014-5-24,55,51,48,51,48,45,92,88,80,29.98,29.88,12,7,24,0.06
2014-5-25,57,53,47,50,48,45,93,86,77,30.04,29.97,9,4,20,0.00
2014-5-26,61,55,50,53,50,43,96,84,60,30.05,30.01,11,4,18,0.06
2014-5-27,66,57,47,54,50,44,96,78,59,30.05,30.01,7,2,12,0.00
2014-5-28,70,59,48,57,52,45,97,81,55,30.08,30.02,8,2,15,0.03
2014-5-29,65,58,50,55,52,47,96,81,67,30.22,30.06,7,2,14,0.01
2014-5-30,67,57,48,55,50,47,97,80,59,30.29,30.21,5,1,13,0.00
2014-5-31,62,56,50,57,53,48,96,89,81,30.30,30.23,12,6,20,0.00
2014-6-1,65,58,56,59,56,54,97,92,81,30.23,29.98,12,6,20,0.03
2014-6-2,59,55,52,54,52,49,97,89,75,30.06,29.95,10,6,15,0.02
2014-6-3,60,53,48,51,48,44,95,83,64,29.95,29.80,13,6,21,0.06
2014-6-4,59,52,44,49,44,41,91,76,58,29.85,29.78,10,4,17,0.02
2014-6-5,64,54,41,50,42,37,97,68,42,29.85,29.79,6,1,12,0.00
2014-6-6,61,56,50,56,51,45,93,86,74,29.83,29.64,11,6,25,0.10
2014-6-7,69,61,54,58,55,52,93,82,61,29.76,29.65,11,6,23,0.06
2014-6-8,64,57,52,60,54,50,95,91,78,29.90,29.74,10,4,22,0.44
2014-6-9,64,58,54,59,55,52,96,91,80,29.90,29.81,9,5,18,0.16
2014-6-10,66,59,52,57,54,51,97,85,66,30.01,29.79,9,4,15,0.02
2014-6-11,66,59,52,58,54,50,97,85,68,30.33,30.01,10,5,18,0.00
2014-6-12,70,62,55,59,55,52,93,81,65,30.33,30.29,12,6,21,0.00
2014-6-13,65,60,57,62,57,53,96,91,86,30.36,30.28,11,4,19,0.13
2014-6-14,68,61,56,59,56,52,95,85,68,30.44,30.35,6,3,11,0.01
2014-6-15,66,60,52,56,54,50,95,82,68,30.47,30.44,9,4,14,0.00
2014-6-16,73,63,50,59,54,48,95,73,56,30.48,30.40,10,4,20,0.00
2014-6-17,78,67,55,65,58,53,96,75,56,30.47,30.39,5,2,14,0.00
2014-6-18,78,66,58,65,59,55,96,80,55,30.42,30.35,10,4,19,0.00
2014-6-19,68,61,55,55,54,51,92,78,60,30.39,30.31,8,6,20,0.00
2014-6-20,66,60,56,55,52,50,83,75,62,30.33,30.23,9,4,17,0.00
2014-6-21,67,60,53,58,54,50,95,81,64,30.26,30.21,8,4,19,0.00
2014-6-22,66,60,52,58,54,50,97,81,69,30.28,30.23,6,2,14,0.00
2014-6-23,74,64,57,58,56,50,93,76,48,30.32,30.26,5,3,15,0.00
2014-6-24,71,64,53,60,56,51,97,78,59,30.28,30.09,5,2,11,0.00
2014-6-25,70,63,60,62,59,57,95,87,68,30.09,29.91,3,1,8,0.35
2014-6-26,63,59,56,60,57,55,97,93,82,29.91,29.81,8,4,19,0.09
2014-6-27,68,60,55,58,55,52,97,86,60,29.89,29.78,9,3,17,0.04
2014-6-28,69,59,50,53,51,47,95,75,50,29.97,29.88,8,4,16,0.00
2014-6-29,68,60,52,54,49,48,86,69,50,30.02,29.96,6,2,13,0.00
2014-6-30,71,63,54,54,50,45,90,66,43,30.07,29.97,7,3,16,0.00
2014-7-1,75,64,50,58,50,47,89,64,43,30.14,30.07,5,2,12,0.00
2014-7-2,66,62,58,60,58,54,96,86,76,30.13,30.03,17,7,29,0.02
2014-7-3,62,59,53,61,57,52,96,93,80,30.07,29.72,12,6,25,0.08
2014-7-4,63,60,55,61,56,49,99,89,68,29.72,29.47,11,6,23,0.36
2014-7-5,64,57,50,54,50,46,91,79,60,29.61,29.55,14,6,23,0.05
2014-7-6,65,57,50,56,51,48,93,81,60,29.83,29.60,11,5,21,0.05
2014-7-7,67,58,51,54,51,48,92,78,54,29.99,29.83,9,3,14,0.00
2014-7-8,67,60,54,55,52,50,94,77,59,30.31,29.99,9,5,21,0.02
2014-7-9,65,59,51,62,54,48,94,85,68,30.33,30.24,10,4,16,0.00
2014-7-10,70,63,58,62,59,57,97,88,75,30.24,30.15,11,6,18,0.01
2014-7-11,64,61,60,63,60,58,97,95,92,30.16,30.02,8,4,14,0.02
2014-7-12,62,61,58,62,60,55,99,97,89,30.02,29.80,9,6,18,0.09
2014-7-13,66,60,55,56,54,50,92,80,60,29.91,29.85,11,5,19,0.00
2014-7-14,66,61,57,64,58,54,98,90,75,29.98,29.69,14,7,26,0.17
2014-7-15,69,61,51,60,55,49,96,81,63,30.06,29.92,12,4,21,0.11
2014-7-16,67,62,59,61,59,56,97,89,77,30.10,29.89,14,8,27,0.02
2014-7-17,73,65,58,65,61,56,97,87,73,30.11,29.96,6,1,11,0.01
2014-7-18,74,65,60,67,61,56,97,87,72,29.96,29.72,8,2,15,0.19
2014-7-19,68,64,61,63,61,59,95,91,81,29.77,29.74,6,1,9,0.00
2014-7-20,69,63,58,60,58,56,94,84,68,30.05,29.82,10,4,20,0.00
2014-7-21,70,65,60,66,63,58,96,92,85,30.14,30.03,8,3,13,0.05
2014-7-22,76,69,65,71,66,64,98,93,82,30.20,30.13,7,2,13,0.17
2014-7-23,77,69,65,69,65,63,97,89,73,30.19,30.08,5,1,13,0.04
2014-7-24,74,67,62,67,64,62,98,90,75,30.11,30.08,6,2,13,0.22
2014-7-25,81,68,60,68,64,60,98,86,59,30.11,30.02,9,3,16,0.02
2014-7-26,71,65,59,63,60,56,98,85,65,30.14,30.04,10,4,18,0.06
2014-7-27,72,62,57,59,56,54,94,79,58,30.15,30.10,9,5,19,0.00
2014-7-28,68,63,59,60,56,54,89,79,67,30.17,30.13,8,4,18,0.00
2014-7-29,69,63,58,61,57,54,96,83,62,30.14,30.08,8,4,15,0.00
2014-7-30,67,62,58,63,58,55,96,89,75,30.11,29.94,13,6,21,0.02
2014-7-31,69,62,58,62,58,54,96,86,64,29.95,29.76,13,5,22,0.03
2014-8-1,64,59,55,59,57,53,97,92,78,29.76,29.62,8,2,15,0.35
2014-8-2,61,57,53,58,54,50,96,89,79,29.66,29.60,9,4,18,0.10
2014-8-3,68,60,55,58,54,51,96,82,57,29.85,29.61,11,5,20,0.09
2014-8-4,72,61,51,60,55,49,97,81,55,29.91,29.85,6,2,14,0.16
2014-8-5,70,63,60,63,61,59,97,91,75,29.91,29.79,6,2,11,0.17
2014-8-6,67,62,54,62,56,50,97,82,58,29.94,29.76,13,5,21,0.01
2014-8-7,67,60,52,58,54,49,95,81,63,29.95,29.87,11,5,21,0.13
2014-8-8,66,60,56,59,55,51,96,84,62,29.87,29.63,12,6,24,0.12
2014-8-9,67,60,53,58,55,52,96,84,69,29.64,29.53,11,5,21,0.04
2014-8-10,65,58,53,56,54,50,97,85,64,29.61,29.46,12,4,22,0.17
2014-8-11,64,58,54,57,54,51,94,86,70,29.67,29.58,17,8,30,0.17
2014-8-12,66,58,52,58,54,50,96,86,71,29.68,29.57,10,5,19,0.24
2014-8-13,67,60,55,59,54,51,92,82,67,29.82,29.68,9,4,17,0.00
2014-8-14,67,59,55,58,54,49,97,83,60,30.06,29.81,9,4,19,0.15
2014-8-15,67,59,53,54,51,48,88,76,56,30.23,30.06,8,4,16,0.00
2014-8-16,62,58,56,57,54,52,95,86,74,30.22,29.97,17,7,28,0.02
2014-8-17,66,58,52,55,50,46,95,78,56,29.97,29.91,11,6,22,0.01
2014-8-18,64,57,52,52,49,45,92,77,56,30.06,29.95,9,5,23,0.01
2014-8-19,62,56,50,51,48,45,88,75,59,30.13,29.98,7,4,15,0.00
2014-8-20,62,56,49,52,48,46,90,77,61,30.16,30.07,7,2,14,0.00
2014-8-21,66,57,52,58,51,48,92,82,61,30.07,29.84,11,6,22,0.03
2014-8-22,64,56,51,51,49,45,90,78,56,30.06,29.91,7,3,17,0.00
2014-8-23,64,56,47,50,47,43,88,73,53,30.10,30.05,6,3,12,0.00
2014-8-24,61,56,49,58,52,44,97,88,76,30.09,29.69,8,3,19,0.12
2014-8-25,67,61,58,64,60,57,98,96,88,29.69,29.37,10,4,22,0.24
2014-8-26,64,60,58,59,58,56,96,91,85,29.88,29.48,9,5,20,0.00
2014-8-27,62,60,58,60,57,55,95,91,88,29.87,29.46,11,7,26,0.04
2014-8-28,65,59,55,58,55,51,97,89,71,29.60,29.47,18,9,35,0.56
2014-8-29,62,59,56,60,57,54,97,93,86,29.86,29.48,20,11,36,0.22
2014-8-30,63,59,56,58,55,52,95,85,70,30.11,29.86,10,5,18,0.00
2014-8-31,64,58,52,62,57,50,98,94,87,30.11,29.95,13,4,23,0.12
2014-9-1,63,59,56,57,54,51,97,83,69,30.25,30.07,8,2,12,0.01
2014-9-2,63,60,56,54,52,50,86,76,65,30.26,30.18,3,1,6,0.00
2014-9-3,68,61,53,59,55,50,94,81,66,30.19,30.08,5,1,9,0.00
2014-9-4,73,65,61,64,60,58,95,87,72,30.09,30.04,7,3,14,0.00
2014-9-5,67,61,57,61,59,56,96,93,83,30.08,30.04,8,4,14,0.00
2014-9-6,62,56,50,56,50,47,97,82,60,30.11,30.06,9,5,15,0.02
2014-9-7,65,54,45,52,48,43,97,82,59,30.16,30.10,7,3,14,0.00
2014-9-8,63,54,45,52,49,43,97,83,60,30.22,30.16,5,2,11,0.01
2014-9-9,68,56,47,54,50,46,97,82,56,30.22,30.14,4,1,9,0.00
2014-9-10,70,58,47,58,52,45,97,81,57,30.15,30.06,6,2,11,0.00
2014-9-11,73,61,50,60,55,48,97,81,61,30.18,30.10,7,2,16,0.00
2014-9-12,68,60,50,59,54,48,95,83,68,30.26,30.16,6,2,16,0.00
2014-9-13,73,63,54,59,56,53,94,79,58,30.30,30.26,5,2,12,0.00
2014-9-14,67,60,53,59,55,51,96,85,69,30.28,30.13,7,3,16,0.00
2014-9-15,68,59,52,59,54,50,97,86,65,30.15,30.02,6,2,16,0.00
2014-9-16,67,58,52,60,55,50,98,90,77,30.03,29.89,5,2,11,0.00
2014-9-17,70,61,54,63,58,53,98,90,75,29.92,29.84,8,4,17,0.00
2014-9-18,69,61,54,61,57,53,96,87,72,29.87,29.80,9,4,21,0.00
2014-9-19,63,60,58,62,59,57,96,95,93,30.05,29.83,8,4,16,0.02
2014-9-20,65,59,50,58,54,48,95,83,64,30.29,30.05,10,6,21,0.00
2014-9-21,65,53,45,55,49,44,98,87,66,30.34,30.29,6,1,11,0.01
2014-9-22,65,56,44,57,52,43,97,87,69,30.33,30.19,9,3,16,0.00
2014-9-23,60,57,51,57,55,50,96,92,78,30.19,29.99,12,4,22,0.05
2014-9-24,65,57,49,57,52,47,97,85,61,30.08,29.99,10,4,17,0.00
2014-9-25,63,60,59,63,59,56,99,96,87,30.06,29.99,13,8,23,0.06
2014-9-26,64,58,50,58,52,45,96,83,60,30.27,30.04,11,4,20,0.03
2014-9-27,67,59,50,58,55,48,94,86,73,30.27,30.15,11,3,23,0.01
2014-9-28,67,62,59,61,59,57,96,91,81,30.15,30.08,9,3,15,0.00
2014-9-29,65,61,58,63,60,56,97,94,91,30.12,30.00,6,1,13,0.17
2014-9-30,65,60,58,64,58,55,97,93,84,30.04,29.95,12,6,19,0.03
2014-10-1,62,56,47,59,50,43,95,81,51,30.41,30.03,9,4,19,0.04
2014-10-2,63,55,47,58,50,45,95,83,66,30.41,29.95,12,6,25,0.00
2014-10-3,63,56,50,60,53,46,97,89,79,29.95,29.83,14,4,29,0.29
2014-10-4,58,51,46,49,45,41,93,82,62,30.04,29.82,11,6,20,0.08
2014-10-5,58,54,51,55,51,49,97,89,81,30.02,29.15,19,10,41,0.23
2014-10-6,56,49,43,55,46,41,97,89,63,29.40,29.15,13,4,32,0.29
2014-10-7,56,48,41,50,45,40,98,89,73,29.37,29.23,10,4,22,0.05
2014-10-8,60,53,49,53,49,47,95,87,71,29.23,29.01,9,4,17,0.00
2014-10-9,60,51,47,53,48,43,97,90,68,29.52,29.06,8,3,17,0.12
2014-10-10,60,51,46,53,48,44,97,89,69,29.73,29.51,9,2,16,0.09
2014-10-11,60,48,40,53,45,39,98,89,72,29.89,29.73,6,1,11,0.00
2014-10-12,59,47,39,53,44,38,98,90,73,29.92,29.84,4,1,9,0.01
2014-10-13,58,49,44,49,45,41,98,86,64,29.90,29.86,8,3,16,0.01
2014-10-14,56,48,40,50,45,39,97,89,79,29.90,29.64,8,3,18,0.00
2014-10-15,57,53,51,56,52,48,97,95,87,29.64,29.28,10,5,23,0.31
2014-10-16,64,55,49,59,53,48,99,94,81,29.37,29.28,9,4,22,0.07
2014-10-17,61,57,52,59,55,51,98,95,86,29.48,29.17,15,7,30,0.18
2014-10-18,64,59,56,57,55,54,95,88,73,29.45,29.21,14,9,28,0.07
2014-10-19,60,56,52,56,54,51,95,92,83,29.91,29.44,19,11,35,0.17
2014-10-20,59,55,52,57,54,50,96,94,89,29.90,29.39,24,10,45,0.44
2014-10-21,56,50,46,55,45,42,95,84,67,30.30,29.39,20,9,37,0.13
2014-10-22,57,54,50,54,50,44,94,85,80,30.30,30.00,16,11,30,0.00
2014-10-23,58,55,49,57,54,48,98,96,94,30.00,29.81,16,10,27,0.17
2014-10-24,56,51,49,52,48,44,95,88,77,29.86,29.82,15,8,27,0.14
2014-10-25,56,54,51,52,50,49,95,88,78,29.88,29.78,18,13,34,0.20
2014-10-26,59,57,53,57,54,50,97,92,82,29.88,29.78,23,13,39,0.11
2014-10-27,61,60,58,58,57,56,96,92,88,29.81,29.60,12,7,23,0.05
2014-10-28,60,51,43,59,48,39,98,91,73,30.00,29.59,12,4,21,1.01
2014-10-29,53,45,37,52,43,36,97,93,85,30.03,29.79,6,2,15,0.00
2014-10-30,62,58,53,59,57,52,98,95,88,29.79,29.67,10,7,21,0.02
2014-10-31,60,57,52,59,56,48,98,96,87,29.72,29.56,13,7,26,0.34
2014-11-1,56,53,50,54,51,47,97,91,80,29.73,29.38,19,10,34,0.28
2014-11-2,51,48,42,48,45,41,95,90,81,29.51,29.17,16,7,29,0.35
2014-11-3,51,46,42,47,43,40,96,90,79,29.21,29.01,15,5,26,0.27
2014-11-4,54,48,45,50,45,42,95,91,84,29.77,29.21,9,5,21,0.12
2014-11-5,50,46,39,46,43,37,96,89,77,29.87,29.53,13,4,23,0.10
2014-11-6,56,53,47,56,52,46,98,97,94,29.53,29.03,14,8,30,0.54
2014-11-7,53,47,44,50,45,41,97,92,84,29.31,29.08,12,6,23,0.17
2014-11-8,53,47,43,48,45,42,97,92,80,29.41,29.26,11,4,17,0.07
2014-11-9,55,48,45,51,46,43,97,92,78,29.60,29.41,9,4,15,0.03
2014-11-10,51,48,45,50,47,44,97,96,94,29.57,29.08,11,5,26,0.14
2014-11-11,51,47,39,50,46,38,98,96,92,29.18,29.11,6,2,12,0.00
2014-11-12,51,46,39,50,45,39,99,96,88,29.22,29.06,11,5,21,0.14
2014-11-13,52,46,44,49,45,43,96,95,87,29.23,29.09,14,6,27,0.45
2014-11-14,54,47,43,50,46,42,98,95,86,29.28,29.02,11,5,22,0.54
2014-11-15,54,47,42,51,46,41,98,94,88,29.47,29.28,5,2,10,0.00
2014-11-16,50,45,41,50,44,40,99,98,96,29.82,29.46,5,2,11,0.02
2014-11-17,52,47,42,49,46,42,99,96,87,29.82,29.77,7,4,16,0.01
2014-11-18,52,46,39,49,45,38,99,94,83,29.80,29.77,7,3,18,0.01
2014-11-19,55,49,40,50,46,38,95,88,78,30.13,29.77,12,5,27,0.04
2014-11-20,46,40,36,46,40,36,100,98,94,30.24,30.07,5,3,13,0.01
2014-11-21,55,50,44,54,49,44,100,97,95,30.07,29.55,9,5,22,0.19
2014-11-22,52,46,40,49,44,37,98,92,77,30.08,29.58,10,4,17,0.12
2014-11-23,49,40,33,45,38,32,98,92,82,30.20,30.08,7,2,12,0.00
2014-11-24,50,45,42,48,43,39,97,92,88,30.29,30.17,9,4,17,0.03
2014-11-25,48,43,39,48,43,39,99,98,95,30.28,30.05,6,3,12,0.06
2014-11-26,47,42,36,45,40,35,98,95,88,30.05,29.66,8,2,17,0.00
2014-11-27,48,46,44,46,44,41,97,92,88,29.66,29.37,9,5,22,0.01